[TLELIST] Archives

 

[TLELIST] Current TLEs

September 9th 2023 PST

HST 1 20580U 90037B 23251.87627331 .00004826 00000-0 24907-3 0 9999 2 20580 28.4694 70.8612 0002101 197.0829 269.7231 15.13958996634159 ISS (ZARYA) 1 25544U 98067A 23252.35730324 .00057937 00000-0 10476-2 0 9992 2 25544 51.6395 271.5502 0005287 358.8142 193.8284 15.49109346414844 CXO 1 25867U 99040B 23252.57395074 .00000900 00000-0 00000-0 0 9993 2 25867 37.3261 185.9903 9052545 271.3297 0.4408 0.37808872 13506 ...Continue Reading

[TLELIST] Current TLEs

September 8th 2023 PST

HST 1 20580U 90037B 23250.82526771 .00005037 00000-0 26048-3 0 9992 2 20580 28.4694 77.8619 0002178 185.1358 302.0469 15.13951046633996 ISS (ZARYA) 1 25544U 98067A 23251.37869737 .00010653 00000-0 19232-3 0 9998 2 25544 51.6416 276.4020 0005609 46.1449 83.6518 15.50296973414696 CXO 1 25867U 99040B 23252.57395074 .00000900 00000-0 00000-0 0 9993 2 25867 37.3261 185.9903 9052545 271.3297 0.4408 0.37808872 13506 ...Continue Reading

[TLELIST] Current TLEs

September 8th 2023 PST

HST 1 20580U 90037B 23250.82526771 .00005037 00000-0 26048-3 0 9992 2 20580 28.4694 77.8619 0002178 185.1358 302.0469 15.13951046633996 ISS (ZARYA) 1 25544U 98067A 23251.37869737 .00010653 00000-0 19232-3 0 9998 2 25544 51.6416 276.4020 0005609 46.1449 83.6518 15.50296973414696 CXO 1 25867U 99040B 23252.57395074 .00000900 00000-0 00000-0 0 9993 2 25867 37.3261 185.9903 9052545 271.3297 0.4408 0.37808872 13506 ...Continue Reading

[TLELIST] Current TLEs

September 8th 2023 PST

HST 1 20580U 90037B 23250.82526771 .00005037 00000-0 26048-3 0 9992 2 20580 28.4694 77.8619 0002178 185.1358 302.0469 15.13951046633996 ISS (ZARYA) 1 25544U 98067A 23251.37869737 .00010653 00000-0 19232-3 0 9998 2 25544 51.6416 276.4020 0005609 46.1449 83.6518 15.50296973414696 CXO 1 25867U 99040B 23252.57395074 .00000900 00000-0 00000-0 0 9993 2 25867 37.3261 185.9903 9052545 271.3297 0.4408 0.37808872 13506 ...Continue Reading

[TLELIST] Current TLEs

September 7th 2023 PST

HST 1 20580U 90037B 23249.96709934 .00004925 00000-0 25454-3 0 9994 2 20580 28.4692 83.5779 0002234 175.2250 305.4563 15.13943826634124 ISS (ZARYA) 1 25544U 98067A 23250.41178851 .00010608 00000-0 19169-3 0 9991 2 25544 51.6412 281.1939 0005815 40.0688 89.8112 15.50275342414540 CXO 1 25867U 99040B 23252.57356431 .00000900 00000-0 00000-0 0 9997 2 25867 37.3289 186.0088 9052576 271.3107 0.3891 0.37811604 13496 ...Continue Reading

[TLELIST] Current TLEs

September 6th 2023 PST

HST 1 20580U 90037B 23248.89502844 .00004337 00000-0 22297-3 0 9995 2 20580 28.4690 90.7187 0002302 163.6016 222.4769 15.13934175633966 ISS (ZARYA) 1 25544U 98067A 23249.39062500 .00012585 00000-0 22602-3 0 9991 2 25544 51.6409 286.2542 0005418 36.6688 150.3950 15.50258823414383 CXO 1 25867U 99040B 23249.93059061 .00000780 00000-0 00000-0 0 9998 2 25867 37.3262 186.3522 9052989 271.0184 0.6128 0.37812662 13483 ...Continue Reading

[TLELIST] Current TLEs

September 6th 2023 PST

HST 1 20580U 90037B 23248.89502844 .00004337 00000-0 22297-3 0 9995 2 20580 28.4690 90.7187 0002302 163.6016 222.4769 15.13934175633966 ISS (ZARYA) 1 25544U 98067A 23249.39062500 .00012585 00000-0 22602-3 0 9991 2 25544 51.6409 286.2542 0005418 36.6688 150.3950 15.50258823414383 CXO 1 25867U 99040B 23249.93059061 .00000780 00000-0 00000-0 0 9998 2 25867 37.3262 186.3522 9052989 271.0184 0.6128 0.37812662 13483 ...Continue Reading

[TLELIST] Current TLEs

September 5th 2023 PST

HST 1 20580U 90037B 23247.33912164 .00004687 00000-0 24186-3 0 9990 2 20580 28.4687 101.0821 0002379 147.2308 22.0632 15.13921654633465 ISS (ZARYA) 1 25544U 98067A 23248.47196132 .00012218 00000-0 21985-3 0 9994 2 25544 51.6413 290.8095 0005847 29.0362 67.6770 15.50234635414243 CXO 1 25867U 99040B 23249.93059061 .00000780 00000-0 00000-0 0 9998 2 25867 37.3262 186.3522 9052989 271.0184 0.6128 0.37812662 13483 ...Continue Reading

[TLELIST] Current TLEs

September 4th 2023 PST

HST 1 20580U 90037B 23247.06882949 .00004913 00000-0 25405-3 0 9994 2 20580 28.4687 102.8824 0002403 144.3252 348.9146 15.13919767633687 ISS (ZARYA) 1 25544U 98067A 23247.37589708 .00013253 00000-0 23800-3 0 9995 2 25544 51.6436 296.2402 0005316 27.6068 68.1570 15.50207774414077 CXO 1 25867U 99040B 23247.28572158 .00000737 00000-0 00000-0 0 9993 2 25867 37.3222 186.7543 9052116 270.6810 0.5877 0.37811217 13473 ...Continue Reading

[TLELIST] [TLELIST] Current TLEs

September 4th 2023 PST

HST 1 20580U 90037B 23247.06882949 .00004913 00000-0 25405-3 0 9994 2 20580 28.4687 102.8824 0002403 144.3252 348.9146 15.13919767633687 ISS (ZARYA) 1 25544U 98067A 23247.37589708 .00013253 00000-0 23800-3 0 9995 2 25544 51.6436 296.2402 0005316 27.6068 68.1570 15.50207774414077 CXO 1 25867U 99040B 23247.28572158 .00000737 00000-0 00000-0 0 9993 2 25867 37.3222 186.7543 9052116 270.6810 0.5877 0.37811217 13473 ...Continue Reading
  • This mailing list is a public mailing list - anyone may join or leave, at any time.
  • This mailing list is announce-only.

International Space Station (ISS) / Hubble Space Telescope (HST) / Chandra X-Ray Observatory Orbital Data via EMAIL

Privacy Policy:

Private list